User: anonymous   Login
Location: Bullfrog
(37.5121°N, 110.7330°W)
Time: 14:21:59
(UTC-06:00)
Language:

N. Korean satellite - Orbit

View from above orbital plane
View from above orbital plane
View from above satellite
View from above satellite

Ground track
Ground track

The orbit data is extracted from the following two-line orbital elements,

1 39026U 12072A   21298.25613783  .00004484  00000-0  14918-3 0  9995
2 39026  97.2549 288.0983 0032697 282.1221  77.6358 15.31151999492882
Epoch (UTC): 25 October 2021 06:08:50
Eccentricity: 0.0032697
inclination: 97.2549°
perigee height: 450 km
apogee height: 495 km
right ascension of ascending node: 288.0983°
argument of perigee: 282.1221°
revolutions per day: 15.31151999
mean anomaly at epoch: 77.6358°
orbit number at epoch: 49288

The dashed part of the orbit path shows where the satellite is in the earth's shadow,  

DLR